sat.trackr.live / text

‹ back to catalog

STARLINK-5882

NORAD 55936 · 2023-037Y

PAYLOAD ACTIVE UNKNOWN

§ Identity

Operator
Country
US
Launch date
2023-03-17
Launch site
AFWTR
Launch vehicle
Mass (kg)
RCS (m²)

Purposes: comms

External: N2YO · Heavens-Above · Gunter

§ Orbital elements

Epoch: 2026-05-25T02:32:20.080608Z

Period
96.11 min
Inclination
70.0008°
Eccentricity
0.0002853
Mean motion
14.98328848 rev/d
Perigee alt
570.1 km
Apogee alt
574.0 km
Semi-major
6,950.2 km
B*
-6.2010e-5
RAAN
71.6222°
Arg perigee
273.5214°
Mean anomaly
86.5619°
Rev number
17,592

§ Raw data

STARLINK-58821 55936U 23037Y   26145.10578797 -.00000833  00000+0 -62010-4 0  99932 55936  70.0008  71.6222 0002853 273.5214  86.5619 14.98328848175921

JSON: /api/v1/satellites/55936 · /tle

For live sub-satellite position, see the globe view (requires WebGL).

§ Visibility from observer

Set your observer location to see the next 7 days of passes ≥ 10°. The values pass through the URL so the page stays shareable.

No JS? Fill the form by hand. The geolocation button needs JavaScript.